Regional Weather Roundup
Issued by NWS

Home | Current Version | Previous Version | Text Only | Print | Product List | Glossary On
Versions: 1 2 3 4 5 6 7 8 9 10 11 12 13 14 15 16 17 18 19 20 21 22 23 24 25 26 27 28 29 30 31 32 33 34 35 36 37 38 39 40 41 42 43 44 45 46 47 48 49 50
000
ASUS44 KFWD 282115
RWRTX
NORTH TEXAS HOURLY WEATHER ROUNDUP
NATIONAL WEATHER SERVICE FORT WORTH TX
400 PM CDT THU JUL 28 2016

NOTE: "FAIR" INDICATES FEW OR NO CLOUDS BELOW 12,000 FEET WITH NO
SIGNIFICANT WEATHER AND/OR OBSTRUCTIONS TO VISIBILITY.

TXZ118-119-282200-
DALLAS/FORT WORTH METROPLEX

CITY           SKY/WX    TMP DP  RH WIND       PRES   REMARKS
DFW AIRPORT    PTSUNNY   96  69  41 SW6       29.91F HX 102
DALLAS LOVE    MOSUNNY   97  70  41 VRB7      29.91F HX 103
FTW MEACHAM    PTSUNNY   97  67  37 VRB3      29.91F HX 101
DAL-EXECUTIVE  CLOUDY    93  68  43 CALM      29.92F HX  97
FTW-ALLIANCE   PTSUNNY   96  68  39 S6        29.91F THUNDER HX 101
FTW-NAS-JRB    PTSUNNY   97  66  36 VRB3      29.91F HX 100
FTW-SPINKS     PTSUNNY   97  66  36 S3        29.94S HX 100
ARLINGTON      MOSUNNY   95  69  42 S9        29.92F HX 100
GRAND PRAIRIE  MOSUNNY   97  66  36 SE5       29.93F HX 100
ADDISON        MOSUNNY   95  68  41 SW3       29.93F HX  99
MESQUITE       PTSUNNY   91  70  49 SE7       29.93S HX  97
LANCASTER      SUNNY     97  67  37 S5        29.93F HX 102
$$

TXZ091>094-102>105-117-120-121-131>134-282200-
NORTH CENTRAL TEXAS

CITY           SKY/WX    TMP DP  RH WIND       PRES   REMARKS
SHRMAN/DENISON MOSUNNY   95  71  46 E3        29.93F HX 102
GAINESVILLE    MOSUNNY   90  71  52 SE3       29.94F HX  96
BOWIE          SUNNY     95  67  40 SE3       29.93F HX  99
BRIDGEPORT     MOSUNNY   96  70  43 E6        29.93F HX 103
DECATUR        MOSUNNY   94  67  40 SE6       29.94F HX  98
DENTON         SUNNY     94  69  44 VRB3      29.91F HX  99
MCKINNEY       MOSUNNY   94  70  45 VRB5      29.92F HX 100
GREENVILLE     MOSUNNY   95  66  38 SW8       29.93F HX  98
ROCKWALL       SUNNY     94  69  43 CALM      29.92S HX 100
TERRELL        MOSUNNY   98  69  38 SW8       29.93S THUNDER HX 104
WAXAHACHIE     SUNNY     94  70  45 S5        29.94F HX 100
CLEBURNE       MOSUNNY   97  68  38 CALM      29.95S HX 101
GRANBURY       MOSUNNY   98  64  33 SE7       29.93F HX 100
$$

TXZ083>090-098>101-113>116-127>130-139>142-154-155-282200-
WESTERN NORTH TEXAS

CITY           SKY/WX    TMP DP  RH WIND       PRES   REMARKS
WICHITA FALLS  MOSUNNY   96  69  41 SE7       29.90F HX 102
WF-KICKAPOO    SUNNY     97  63  32 E6        29.92F HX  98
VERNON         SUNNY     98  55  23 SE9       29.93F HX  96
ABILENE        MOSUNNY   95  65  37 S12G22    29.97F HX  97
CISCO          SUNNY     93  66  40 S8G14     29.98F HX  96
BRECKENRIDGE   PTSUNNY   98  63  31 S10       29.93S HAZE    HX 100
GRAHAM         PTSUNNY  101  68  33 SE7       29.90F HX 106
MINERAL WELLS  PTSUNNY   95  69  42 VRB3      29.91F HX 100
STEPHENVILLE   SUNNY     95  61  32 CALM      29.99S HX  95
COMANCHE       SUNNY     95  65  37 S6        29.97F HX  97
BROWNWOOD      MOSUNNY   84  72  65 N5        29.97F
COLEMAN        CLOUDY    94  61  33 S6        29.98F HX  94
$$

TXZ143>147-156>162-174-175-282200-
CENTRAL TEXAS

CITY           SKY/WX    TMP DP  RH WIND       PRES   REMARKS
WACO           CLOUDY    95  67  39 S8        29.94S HX  99
WACO-TSTC      SUNNY     95  68  41 S8        29.93  HX  99
WACO-MCGREGOR  PTSUNNY   91  71  51 NE10      29.94S HX  97
HILLSBORO      MOSUNNY   94  66  40 SW7       29.93F HX  96
CORSICANA      CLOUDY    94  70  45 SE8       29.95S HX 100
MEXIA          SUNNY     96  69  42 S8        29.94F HX 101
HEARNE         PTSUNNY   83  71  66 SE16G24   30.01R
CAMERON        MOSUNNY   84  71  63 S26G38    29.97R
TEMPLE         MOSUNNY   99  68  36 S12       29.94F HX 104
KILLEEN        NOT AVBL
KILLEEN-SKYLRK SUNNY     97  64  33 VRB3      29.95F HX  99
GATESVILLE     CLOUDY    91  70  49 E5        29.97S HX  97
HAMILTON       MOSUNNY   94  67  41 S6        29.99S HX  98
LAMPASAS       SUNNY     96  67  39 SE5       29.96S HX 100
$$

TXZ095>097-106>112-122>126-135>138-148>153-164>167-282200-
EAST TEXAS

CITY           SKY/WX    TMP DP  RH WIND       PRES   REMARKS
PARIS          MOSUNNY   91  66  43 CALM      29.94F HX  94
SULPHUR SPRNGS CLOUDY    89  71  54 SE7       29.96S HX  95
MOUNT PLEASANT CLOUDY    84  74  72 SE17      29.97S HX  92
GILMER         LGT RAIN  75  74  96 E8        29.99S
MINEOLA        CLOUDY    91  75  59 SE7       29.96S HX 102
TYLER          CLOUDY    83  74  74 S6        29.98R THUNDER
LONGVIEW       LGT RAIN  74  74 100 E9        30.01R
MARSHALL       CLOUDY    70  68  92 CALM      30.03F
ATHENS         MOSUNNY   91  73  55 S7        29.94F HX 100
PALESTINE      MOSUNNY   94  69  43 S7        29.97S HX  99
JACKSONVILLE   CLOUDY    84  72  67 E3        30.01S HX  90
HENDERSON      LGT RAIN  75  73  94 NE7       30.00F
CENTER         RAIN      75  73  95 N20G30    30.01R
NACOGDOCHES    CLOUDY   N/A N/A N/A N8        29.96R THUNDER
LUFKIN         CLOUDY    78  72  81 S14G24    29.99R THUNDER
$$

SUPPLEMENTAL OBSERVATIONS (CENTRAL)

CITY           SKY/WX    TMP DP  RH WIND       PRES   REMARKS
DENISON DAM      N/A     93  72  49 N1          N/A  HX 100
CADDO GRASSLND   N/A     93  72  49 NE3         N/A  HX 100
PAT MAYSE LAKE   N/A     91  72  52 SE7         N/A  HX  98
GREENVILLE       N/A     91  68  46 S7          N/A  HX  95
CEDAR HILL       N/A     95  70  43 W3          N/A  HX 101
ATHENS           N/A     91  72  52 SW5G13      N/A  HX  98
LAKE LIMESTONE   N/A     90  73  58 S17G33      N/A  HX  98
MCGREGOR         N/A     97  66  36 SW2         N/A  HX 100
TEMPLE           N/A     97  64  34 S13G25      N/A  HX  99
$$

SUPPLEMENTAL OBSERVATIONS (WEST)

CITY           SKY/WX    TMP DP  RH WIND       PRES   REMARKS
MILLERS CREEK    N/A     91  66  43 S12         N/A  HX  94
POSSUM KINGDOM   N/A     95  66  38 SE8         N/A  HX  98
LBJ GRASSLAND    N/A     97  70  41 W3          N/A  HX 103
COMANCHE         N/A     95  64  36 S6          N/A  HX  97
HAMBY            N/A     97  66  36 SE9G17      N/A  HX 100
IVIE RESERVOIR   N/A     93  63  36 CALM        N/A  HX  94
COLORADO BEND    N/A     95  63  34 W5          N/A  HX  96
$$

SUPPLEMENTAL OBSERVATIONS (EAST)

CITY           SKY/WX    TMP DP  RH WIND       PRES   REMARKS
CLARKSVILLE      N/A     90  72  55 S6          N/A  HX  96
TEXARKANA        N/A     75  73  94 S3          N/A
LINDEN           N/A     73  70  88 S2          N/A
CADDO LAKE       N/A     73  68  83 CALM        N/A
GILMER           N/A     77  73  88 SE8         N/A
HENDERSON        N/A     75  70  83 NE7         N/A
LUFKIN           N/A     81  70  69 MISG        N/A
S SABINE NF      N/A     82  72  69 N3          N/A
$$

SUPPLEMENTAL OBSERVATIONS ARE A COLLECTION OF AUTOMATED INSTRUMENTS
THAT ARE MAINTAINED BY A VARIETY OF FEDERAL AND STATE AGENCIES.
CERTAIN ELEMENTS...SUCH AS HUMIDITY VALUES AND SUSTAINED WIND
SPEEDS...MAY BE APPROXIMATED.




USA.gov is the U.S. government's official web portal to all federal, state and local government web resources and services.